Regional Weather Roundup
Issued by NWS

Home | Current Version | Previous Version | Graphics & Text | Print | Product List | Glossary On
Versions: 1 2 3 4 5 6 7 8 9 10 11 12 13 14 15 16 17 18 19 20 21 22 23 24 25 26 27 28 29 30 31 32 33 34 35 36 37 38 39 40 41 42 43 44 45 46 47 48 49 50
000
ASUS43 KIND 030809
RWRIN

WEATHER ROUNDUP FOR INDIANA
NATIONAL WEATHER SERVICE INDIANAPOLIS IN
400 AM EDT MON AUG 03 2015

NOTE: "FAIR" INDICATES FEW OR NO CLOUDS BELOW 12,000 FEET WITH NO
SIGNIFICANT WEATHER AND/OR OBSTRUCTIONS TO VISIBILITY.

* - STATION DOES NOT REPORT WEATHER SUCH AS PRECIPITATION OR FOG.

+ - STATION NOT QUALITY CONTROLLED BY THE NATIONAL WEATHER SERVICE.
    USE DATA WITH CAUTION...ESPECIALLY DEWPOINT AND RELATIVE
    HUMIDITY OBSERVATIONS.

INZ001>003-010>013-019-020-030900-
NORTHWEST INDIANA

CITY           SKY/WX    TMP DP  RH WIND       PRES   REMARKS
GARY /AIRPORT/ MOCLDY    68  67  96 W3        29.75R
KNOX *+        CLOUDY    64  64 100 CALM      29.75R
LA PORTE +     CLOUDY    67  67 100 NW6       29.76R
MICHIGAN CITY+ FOG       63  63 100 CALM      29.76R VSB 1
MONTICELLO +   CLOUDY    65  65 100 CALM      29.76F
RENSSELAER +   MOCLDY    64  64 100 S3        29.76R

$$

LMZ046-743>745-030900-
SOUTHERN LAKE MICHIGAN

STATION/POSITION TIME  TEMP    WIND        PRES    WAVE
                       AIR SEA DIR/SP/G            HT
                 (UTC) (F)     (DEG/KT/KT) (MB)    (FT)
BURNS HARBOR     0700   71     280/  9/ 10 1007.8S
MICHIGAN CITY    0700   70     250/ 13/ 14   N/A
5NW MICH CITY    0800   71 73  320/  6/ 10   N/A     3

$$

INZ004-005-014>016-021>024-030900-
NORTH CENTRAL INDIANA

CITY           SKY/WX    TMP DP  RH WIND       PRES   REMARKS
GOSHEN         CLOUDY    64  61  90 S5        29.76R
LOGANSPORT +   CLOUDY    64  61  88 S7        29.78F
PERU/GRISSOM   CLOUDY    65  63  94 SW12G22   29.78F THUNDER
SOUTH BEND     CLOUDY    66  63  90 SW5       29.77R
WARSAW +       CLOUDY    63  61  94 CALM      29.77S

$$

INZ006>009-017-018-025>027-030900-
NORTHEAST INDIANA

CITY           SKY/WX    TMP DP  RH WIND       PRES   REMARKS
ANGOLA *+      CLEAR     63  61  94 CALM      29.76R
AUBURN +       CLOUDY    63  61  94 W6        29.77F
FORT WAYNE     CLOUDY    64  62  93 SW6       29.78F
HUNTINGTON +   CLOUDY    63  61  93 SW6       29.79F

$$

INZ028-029-035-036-043>045-051>053-030900-
WEST CENTRAL INDIANA

CITY           SKY/WX    TMP DP  RH WIND       PRES   REMARKS
CRAWFORDSVL +  TSTM      73  69  87 W12G22      N/A
GREENCASTLE +  PTCLDY    72  64  78 S3        29.81F
LAFAYETTE      CLOUDY    68  64  87 E10       29.79R
TERRE HAUTE    MOCLDY    76  71  85 SW7       29.80F

$$

INZ030>032-037>040-046>048-054>057-064-065-030900-
CENTRAL INDIANA

CITY           SKY/WX    TMP DP  RH WIND       PRES   REMARKS
FISHERS *+     CLOUDY    75  68  78 NE7       29.83R
FRANKFORT +    TSTM     N/A N/A N/A N6        29.83R
GREENWOOD *+   CLEAR     73  63  68 S7        29.81F
INDIANAPOLIS   CLOUDY    75  66  73 SW13      29.78F
-EAGLE CREEK   CLOUDY    75  67  76 SW9       29.79F
KOKOMO *+      CLOUDY    64  61  88 NW8G21    29.81F THUNDER
MARION +       RAIN      62  61  98 CALM      29.84F
MT COMFORT *+  PTCLDY    70  63  78 S7        29.80F
SHELBYVILLE    CLEAR     73  63  70 S10       29.80F
ZIONSVILLE +   PTCLDY    75  66  75 SW5       29.81R

$$

INZ033-034-041-042-049-050-058-059-030900-
EAST CENTRAL INDIANA

CITY           SKY/WX    TMP DP  RH WIND       PRES   REMARKS
MUNCIE         TSTM      61  61 100 N6        29.86F FOG

$$

INZ060-061-067>069-081>083-085>088-030900-
SOUTHWEST INDIANA

CITY           SKY/WX    TMP DP  RH WIND       PRES   REMARKS
EVANSVILLE     PTCLDY    75  68  78 SW6       29.86F
HUNTINGBURG *+ CLEAR     72  63  73 SW6       29.86F
WASHINGTON +   CLEAR     75  66  73 S8        29.82F

$$

INZ062-063-066-070>080-084-089>092-030900-
SOUTH CENTRAL AND SOUTHEAST INDIANA

CITY           SKY/WX    TMP DP  RH WIND       PRES   REMARKS
BLOOMINGTON    CLEAR     73  66  78 SW3       29.82F
MADISON *+     CLEAR     68  61  77 S3        29.88F
NORTH VERNON + PTCLDY    70  64  83 S7        29.86F
SEYMOUR +      MOCLDY    70  64  83 S6        29.84F

$$




USA.gov is the U.S. government's official web portal to all federal, state and local government web resources and services.